[[{"header":{"parameterUnit":"m.s-1","parameterCategory":1,"la1":30.2991,"la2":30.254,"lo1":-89.0895,"lo2":-89.0444,"dy":0.0017,"dx":0.0017,"nx":28,"ny":28,"refTime":"2024-10-11T21:00:00:Z","depth":0,"parameterNumber":2,"parameterNumberName":"U-component_of_WINDS"},"data":[0,0,0,0,0,0,0,0,0,0,0,0,0,0,0,0,0,0,0,0,0,0,0,0,0,0,0,0,0,0,0,0,0,0,0,0,0,0,0,0,0,0,0,0,0,0,0,0,0,0,0,0,0,0,0,0,0,0,-1.6035,-1.6036,0,-1.6083,-1.6083,-1.6084,-1.6023,-1.6021,-1.6019,-1.6017,-1.6069,-1.6072,-1.6075,0,0,0,0,0,0,0,0,0,0,0,0,0,-1.5895,-1.5898,-1.6035,-1.6036,-1.6037,-1.6083,-1.6083,-1.6084,-1.6024,-1.6021,-1.6018,-1.6016,-1.6068,-1.6072,-1.6076,0,0,0,0,0,0,0,0,0,0,0,0,0,-1.5951,-1.5899,-1.6035,-1.6012,-1.601,-1.6083,-1.6083,-1.6084,-1.6024,-1.6021,-1.6018,-1.6014,-1.6066,-1.6071,-1.6076,-1.6175,0,0,-1.6092,-1.6094,0,0,0,0,0,0,0,0,-1.5948,-1.5956,-1.6015,-1.6014,-1.6012,-1.6044,-1.6053,-1.6115,-1.6025,-1.6019,-1.6017,-1.6013,-1.6063,-1.6068,-1.6085,-1.6177,-1.618,-1.6093,-1.6096,-1.6098,-1.6099,0,0,0,0,0,0,0,-1.5944,-1.5954,-1.6054,-1.6016,-1.6014,-1.6,-1.6004,-1.6064,-1.6059,-1.6019,-1.6015,-1.6021,-1.6062,-1.608,-1.6086,-1.618,-1.6092,-1.6097,-1.61,-1.6102,-1.6357,-1.6361,0,0,0,0,0,0,-1.5942,-1.5951,-1.6053,-1.6056,-1.5971,-1.6005,-1.601,-1.6037,-1.6058,-1.6059,-1.6024,-1.6018,-1.6073,-1.608,-1.6087,-1.6205,-1.6098,-1.6103,-1.6106,-1.6354,-1.6358,-1.6362,0,0,0,0,0,0,-1.594,-1.5952,-1.6051,-1.6002,-1.6014,-1.6011,-1.6042,-1.604,-1.6058,-1.6062,-1.6061,-1.6043,-1.607,-1.608,-1.6154,-1.6206,-1.6105,-1.611,-1.635,-1.6355,-1.636,-1.6442,0,0,0,0,0,0,-1.5936,-1.5951,-1.5988,-1.6003,-1.6016,-1.6116,-1.6045,-1.6043,-1.6066,-1.6059,-1.608,-1.608,-1.6068,-1.6146,-1.6159,-1.6212,-1.6114,-1.6345,-1.6352,-1.6359,-1.6435,-1.645,-1.6463,0,0,0,0,0,-1.5931,-1.601,-1.5991,-1.6003,-1.6062,-1.6119,-1.6127,-1.6111,-1.6071,-1.6108,-1.6111,-1.608,-1.6198,-1.6154,-1.6168,-1.6223,-1.6341,-1.635,-1.6358,-1.6429,-1.6447,-1.6462,0,0,0,0,0,0,-1.6002,-1.6011,-1.599,-1.6076,-1.6097,-1.6109,-1.6156,-1.613,-1.6164,-1.6156,-1.6136,-1.6141,-1.622,-1.6228,-1.618,-1.632,-1.6263,-1.6275,-1.6312,-1.633,-1.6343,-1.6341,-1.6118,0,0,0,0,0,-1.6028,-1.6072,-1.6078,-1.6153,-1.6165,-1.6159,-1.6183,-1.6168,-1.619,-1.6199,-1.6207,-1.623,-1.6272,-1.6301,-1.634,-1.6435,-1.6439,-1.6479,-1.6493,-1.6505,-1.6516,-1.6568,-1.6586,-1.6389,-1.6389,-1.6389,0,0,-1.6081,-1.6092,-1.6121,-1.6168,-1.6182,-1.623,-1.6167,-1.6219,-1.6255,-1.6207,-1.6278,-1.6284,-1.6309,-1.6394,-1.6432,-1.6403,-1.6571,-1.6515,-1.6524,-1.6529,-1.6578,-1.6597,-1.6614,-1.6395,-1.6394,-1.6393,0,0,-1.6204,-1.6215,-1.628,-1.6296,-1.6318,-1.6314,-1.6329,-1.6345,-1.6347,-1.6417,-1.6382,-1.6425,-1.6498,-1.6517,-1.6536,-1.6665,-1.6638,-1.6679,-1.6753,-1.6804,-1.6819,-1.6833,-1.6881,-1.6899,-1.6689,-1.6689,-1.6689,0,-1.6268,-1.6338,-1.6317,-1.6372,-1.6395,-1.6352,-1.6418,-1.6434,-1.6469,-1.6486,-1.6453,-1.6545,-1.6558,-1.6647,-1.6679,-1.6695,-1.6714,-1.6678,-1.6818,-1.6832,-1.6845,-1.689,-1.6908,-1.6694,-1.6694,-1.6693,-1.6693,0,-1.6417,-1.6465,-1.6515,-1.6549,-1.6576,-1.6637,-1.6626,-1.6656,-1.6639,-1.6638,-1.6711,-1.6725,-1.6767,-1.6786,-1.6771,-1.6874,-1.6856,-1.6821,-1.6764,-1.6869,-1.6912,-1.6929,-1.6701,-1.6699,-1.6698,-1.6697,0,0,-1.6588,-1.6608,-1.6627,-1.6642,-1.6664,-1.6702,-1.6761,-1.68,-1.6828,-1.6853,-1.6903,-1.6965,-1.6933,-1.6955,-1.6941,-1.6986,-1.709,-1.6945,-1.6946,-1.6974,-1.7207,-1.7235,-1.7256,-1.707,-1.7074,-1.7076,-1.7206,0,-1.6712,-1.6813,-1.6796,-1.6895,-1.694,-1.69,-1.6951,-1.6971,-1.6971,-1.7011,-1.7011,-1.7057,-1.7009,-1.7023,-1.7065,-1.7068,-1.7137,-1.7058,-1.7119,-1.7122,-1.7117,-1.7278,-1.7308,-1.743,-1.7222,-1.7225,-1.7227,0,-1.6871,-1.6901,-1.7005,-1.7019,-1.7038,-1.7085,-1.712,-1.7158,-1.7179,-1.7176,-1.7201,-1.7178,-1.7238,-1.7178,-1.7261,-1.7209,-1.7232,-1.7237,-1.7242,-1.7249,-1.7183,-1.7292,-1.7468,-1.7487,-1.7253,-1.7251,-1.7249,0,-1.6988,-1.7055,-1.7125,-1.7139,-1.7158,-1.7192,-1.7201,-1.7219,-1.7244,-1.7275,-1.7292,-1.733,-1.7352,-1.7382,-1.7371,-1.7328,-1.7457,-1.7396,-1.7459,-1.7459,-1.749,-1.7489,-1.7675,-1.7501,-1.7501,-1.75,-1.75,0,-1.713,-1.7196,-1.7178,-1.7222,-1.7295,-1.7274,-1.7346,-1.7351,-1.7367,-1.7412,-1.7379,-1.7422,-1.7403,-1.7446,-1.7437,-1.7509,-1.7518,-1.7519,-1.7516,-1.7523,-1.7524,-1.7541,-1.7533,-1.7505,-1.7504,-1.7503,-1.7502,0,-1.7275,-1.7265,-1.734,-1.7351,-1.7355,-1.7409,-1.7418,-1.746,-1.7457,-1.7514,-1.7527,-1.7523,-1.7571,-1.7562,-1.7615,-1.7609,-1.77,-1.7685,-1.7693,-1.769,-1.7755,-1.775,-1.796,-1.7988,-1.7794,-1.7796,-1.7797,0,-1.7368,-1.7417,-1.7433,-1.746,-1.7472,-1.7516,-1.7542,-1.7523,-1.7551,-1.7579,-1.7618,-1.7662,-1.7697,-1.7776,-1.7779,-1.782,-1.7808,-1.7878,-1.7814,-1.782,-1.7812,-1.781,-1.7816,-1.7892,-1.7895,-1.7896,-1.7898,0,-1.7534,-1.7527,-1.7564,-1.7601,-1.7632,-1.7659,-1.7684,-1.7708,-1.7692,-1.7725,-1.7773,-1.78,-1.7854,-1.79,-1.7937,-1.7948,-1.7922,-1.7918,-1.7935,-1.7944,-1.7947,-1.7949,-1.7731,-1.7914,-1.7912,-1.7911,-1.791,-1.7909,-1.7657,-1.77,-1.7718,-1.7761,-1.7777,-1.7801,-1.7841,-1.7842,-1.7882,-1.7924,-1.791,-1.7966,-1.7986,-1.8034,-1.8049,-1.8093,-1.8067,-1.8091,-1.8098,-1.8105,-1.8114,-1.7938,-1.8099,-1.8099,-1.8098,-1.8098,-1.8098,0,-1.7824,-1.7833,-1.7873,-1.7908,-1.7943,-1.7912,-1.7937,-1.7969,-1.8018,-1.8038,-1.8073,-1.8129,-1.8173,-1.8179,-1.8221,-1.8255,-1.8244,-1.8267,-1.8266,-1.8269,-1.8133,-1.8116,-1.8275,-1.8275,-1.8275,-1.8275,-1.8275,-1.8275,-1.7915,-1.7986,-1.7981,-1.806,-1.8068,-1.8122,-1.814,-1.8162,-1.8178,-1.8242,-1.8278,-1.8281,-1.8296,-1.8339,-1.8378,-1.8379,-1.8397,-1.8426,-1.8422,-1.8296,-1.8278,-1.8262,-1.8245,-1.8429,-1.8429,-1.8554,-1.8555,-1.8556]},{"header":{"parameterUnit":"m.s-1","parameterCategory":1,"la1":30.2991,"la2":30.254,"lo1":-89.0895,"lo2":-89.0444,"dy":0.0017,"dx":0.0017,"nx":28,"ny":28,"refTime":"2024-10-11T21:00:00:Z","depth":0,"parameterNumber":3,"parameterNumberName":"V-component_of_WINDS"},"data":[0,0,0,0,0,0,0,0,0,0,0,0,0,0,0,0,0,0,0,0,0,0,0,0,0,0,0,0,0,0,0,0,0,0,0,0,0,0,0,0,0,0,0,0,0,0,0,0,0,0,0,0,0,0,0,0,0,0,-2.954,-2.954,0,-2.9544,-2.9544,-2.9544,-2.949,-2.9488,-2.9487,-2.9485,-2.9488,-2.9489,-2.9491,0,0,0,0,0,0,0,0,0,0,0,0,0,-2.9486,-2.9487,-2.954,-2.954,-2.954,-2.9544,-2.9544,-2.9544,-2.949,-2.9488,-2.9486,-2.9485,-2.9487,-2.9489,-2.9491,0,0,0,0,0,0,0,0,0,0,0,0,0,-2.9501,-2.9487,-2.954,-2.9514,-2.9512,-2.9544,-2.9544,-2.9544,-2.949,-2.9488,-2.9486,-2.9484,-2.9487,-2.9489,-2.9491,-2.9548,0,0,-2.9497,-2.9498,0,0,0,0,0,0,0,0,-2.95,-2.9503,-2.9518,-2.9516,-2.9513,-2.9514,-2.9525,-2.9545,-2.9491,-2.9498,-2.9485,-2.9483,-2.9498,-2.9499,-2.9505,-2.9548,-2.9548,-2.9498,-2.9499,-2.95,-2.95,0,0,0,0,0,0,0,-2.9499,-2.9503,-2.9542,-2.9518,-2.9515,-2.9501,-2.9501,-2.9529,-2.951,-2.9498,-2.9494,-2.9495,-2.9496,-2.9503,-2.9504,-2.9548,-2.9498,-2.9499,-2.9501,-2.9502,-2.9639,-2.9641,0,0,0,0,0,0,-2.9502,-2.9502,-2.9541,-2.9542,-2.9501,-2.9504,-2.9504,-2.9516,-2.951,-2.9507,-2.9497,-2.9492,-2.95,-2.9502,-2.9504,-2.9571,-2.95,-2.9502,-2.9503,-2.9636,-2.9639,-2.9642,0,0,0,0,0,0,-2.9501,-2.9506,-2.9541,-2.9521,-2.9524,-2.9508,-2.9521,-2.9517,-2.9523,-2.9509,-2.9506,-2.9507,-2.9498,-2.9501,-2.9538,-2.957,-2.9503,-2.9505,-2.9634,-2.9637,-2.9641,-2.9705,0,0,0,0,0,0,-2.95,-2.9506,-2.9528,-2.9522,-2.9526,-2.9575,-2.9523,-2.9519,-2.9527,-2.9522,-2.9518,-2.9515,-2.9497,-2.9535,-2.954,-2.9572,-2.9506,-2.9631,-2.9635,-2.9639,-2.97,-2.971,-2.9719,0,0,0,0,0,-2.9498,-2.9546,-2.9529,-2.9534,-2.9553,-2.9577,-2.9579,-2.9558,-2.953,-2.9552,-2.9543,-2.9515,-2.9566,-2.9539,-2.9544,-2.9578,-2.9629,-2.9634,-2.9639,-2.9696,-2.9708,-2.9719,0,0,0,0,0,0,-2.9555,-2.9544,-2.9526,-2.9573,-2.9577,-2.9568,-2.9595,-2.9572,-2.9583,-2.9577,-2.955,-2.955,-2.9591,-2.9587,-2.9558,-2.9633,-2.9592,-2.9599,-2.9633,-2.9645,-2.9655,-2.9655,-2.9508,0,0,0,0,0,-2.9574,-2.9595,-2.9584,-2.9626,-2.9629,-2.9612,-2.9622,-2.9605,-2.9607,-2.9608,-2.9602,-2.9605,-2.9622,-2.9633,-2.9647,-2.9699,-2.9698,-2.9724,-2.9734,-2.9742,-2.9748,-2.9776,-2.9788,-2.9659,-2.9659,-2.9659,0,0,-2.9611,-2.9608,-2.9623,-2.9638,-2.9639,-2.9661,-2.9613,-2.9639,-2.9655,-2.9612,-2.9647,-2.9642,-2.9643,-2.9688,-2.9707,-2.9686,-2.9784,-2.9749,-2.9756,-2.9757,-2.9783,-2.9795,-2.9806,-2.9663,-2.9662,-2.9662,0,0,-2.9692,-2.9691,-2.9727,-2.9729,-2.9731,-2.9719,-2.9727,-2.9722,-2.9718,-2.9752,-2.972,-2.9739,-2.9768,-2.977,-2.9776,-2.9857,-2.9832,-2.9862,-2.9913,-2.994,-2.995,-2.9959,-2.9989,-3.0,-2.9869,-2.9869,-2.9869,0,-2.9738,-2.9771,-2.9748,-2.9776,-2.9784,-2.9746,-2.9782,-2.9784,-2.9791,-2.9797,-2.9773,-2.981,-2.9808,-2.9853,-2.9873,-2.9878,-2.9887,-2.9863,-2.9951,-2.996,-2.9967,-2.9995,-3.0007,-2.9872,-2.9872,-2.9872,-2.9871,0,-2.9829,-2.9852,-2.988,-2.9888,-2.9899,-2.9931,-2.9912,-2.9925,-2.9908,-2.9898,-2.9934,-2.993,-2.9944,-2.9953,-2.9936,-2.9995,-2.9983,-2.9956,-2.9915,-2.9984,-3.001,-3.002,-2.9878,-2.9876,-2.9875,-2.9874,0,0,-2.9946,-2.994,-2.9951,-2.9955,-2.9954,-2.9971,-3.0001,-3.0015,-3.0027,-3.0033,-3.0057,-3.0083,-3.0058,-3.0064,-3.0046,-3.007,-3.0136,-3.004,-3.004,-3.0059,-3.0202,-3.0223,-3.0236,-3.0119,-3.0121,-3.0122,-3.0202,0,-3.0024,-3.0076,-3.0056,-3.0109,-3.013,-3.0095,-3.0121,-3.0123,-3.0115,-3.0132,-3.0122,-3.0141,-3.0107,-3.011,-3.0132,-3.0123,-3.0164,-3.0117,-3.0142,-3.0143,-3.0143,-3.0249,-3.0271,-3.0346,-3.0212,-3.0214,-3.0215,0,-3.0123,-3.0133,-3.0189,-3.0185,-3.0193,-3.0217,-3.0228,-3.0244,-3.0246,-3.0239,-3.0246,-3.0223,-3.0252,-3.0211,-3.025,-3.0219,-3.0227,-3.0225,-3.0227,-3.0229,-3.0184,-3.0255,-3.037,-3.0382,-3.023,-3.0229,-3.0228,0,-3.0204,-3.0231,-3.0268,-3.0272,-3.0268,-3.0286,-3.0285,-3.0285,-3.0294,-3.0303,-3.0309,-3.0322,-3.0329,-3.0339,-3.032,-3.0292,-3.0363,-3.032,-3.0357,-3.0358,-3.0374,-3.0374,-3.0494,-3.0379,-3.0379,-3.0379,-3.0379,0,-3.0294,-3.033,-3.0305,-3.0328,-3.0366,-3.0342,-3.0381,-3.0376,-3.0376,-3.0397,-3.0367,-3.0387,-3.0361,-3.0379,-3.0364,-3.0399,-3.0403,-3.0397,-3.0393,-3.0401,-3.0401,-3.0406,-3.0401,-3.0382,-3.0381,-3.038,-3.038,0,-3.0391,-3.0376,-3.0414,-3.0407,-3.0406,-3.0435,-3.0429,-3.045,-3.0439,-3.0467,-3.0471,-3.0455,-3.0475,-3.0457,-3.0475,-3.0466,-3.0513,-3.0501,-3.0513,-3.051,-3.0549,-3.0545,-3.0676,-3.0693,-3.0567,-3.0568,-3.0569,0,-3.045,-3.0477,-3.0473,-3.0485,-3.0487,-3.0506,-3.0516,-3.0493,-3.0505,-3.0509,-3.0529,-3.0546,-3.0559,-3.0591,-3.0581,-3.0595,-3.0583,-3.0628,-3.0585,-3.0592,-3.0585,-3.0584,-3.0587,-3.0637,-3.0639,-3.064,-3.0641,0,-3.0557,-3.0548,-3.0564,-3.0577,-3.059,-3.0599,-3.0605,-3.0617,-3.0593,-3.0608,-3.0627,-3.0637,-3.0656,-3.0673,-3.0684,-3.0682,-3.0658,-3.0654,-3.0664,-3.0672,-3.0678,-3.0676,-3.0537,-3.0652,-3.0651,-3.065,-3.0649,-3.0649,-3.0637,-3.0659,-3.0661,-3.0679,-3.0682,-3.0689,-3.0708,-3.07,-3.0717,-3.0731,-3.0716,-3.074,-3.0741,-3.0753,-3.0755,-3.0773,-3.0754,-3.0768,-3.0771,-3.0775,-3.0782,-3.0675,-3.0775,-3.0774,-3.0774,-3.0774,-3.0774,0,-3.0743,-3.0742,-3.0759,-3.077,-3.0784,-3.076,-3.0766,-3.078,-3.0802,-3.0805,-3.0818,-3.0841,-3.0857,-3.0849,-3.0863,-3.0879,-3.0869,-3.0884,-3.0883,-3.0883,-3.0797,-3.0788,-3.0893,-3.0893,-3.0893,-3.0892,-3.0892,-3.0892,-3.08,-3.0836,-3.0828,-3.0865,-3.0864,-3.0888,-3.0893,-3.09,-3.0902,-3.0929,-3.0943,-3.0937,-3.0936,-3.095,-3.0964,-3.0961,-3.0968,-3.0988,-3.0981,-3.0901,-3.0889,-3.0878,-3.0869,-3.0989,-3.0989,-3.1065,-3.1066,-3.1066]}]]